Time,TemperatureF,DewpointF,PressureIn,WindDirection,WindDirectionDegrees,WindSpeedMPH,WindSpeedGustMPH,Humidity,HourlyPrecipIn,Conditions,Clouds,dailyrainin,SoftwareType,DateUTC
2013-04-25 00:02:00,57.0,54.0,30.25,ENE,67,6.0,15.0,89,0.00,,,1.27,,2013-04-25 05:02:00,
2013-04-25 00:12:00,57.0,54.0,30.25,ENE,67,6.0,15.0,89,0.00,,,1.27,,2013-04-25 05:12:00,
2013-04-25 00:21:00,56.0,53.0,30.25,NE,39,1.0,12.0,89,0.00,,,1.27,,2013-04-25 05:21:00,
2013-04-25 00:32:00,56.0,53.0,30.26,NE,35,5.0,12.0,90,0.00,,,1.27,,2013-04-25 05:32:00,
2013-04-25 00:42:00,56.0,53.0,30.26,NE,35,5.0,12.0,90,0.00,,,1.27,,2013-04-25 05:42:00,
2013-04-25 00:51:00,56.0,53.0,30.26,NNE,14,2.0,8.0,90,0.00,,,1.27,,2013-04-25 05:51:00,
2013-04-25 01:02:00,56.0,53.0,30.26,NNE,14,2.0,8.0,90,0.00,,,1.27,,2013-04-25 06:02:00,
2013-04-25 01:11:00,56.0,53.0,30.26,NNE,14,2.0,8.0,90,0.00,,,1.27,,2013-04-25 06:11:00,
2013-04-25 01:22:00,56.0,53.0,30.26,NNE,14,2.0,8.0,90,0.00,,,1.27,,2013-04-25 06:22:00,
2013-04-25 01:31:00,55.0,53.0,30.25,NE,36,3.0,12.0,92,0.00,,,1.27,,2013-04-25 06:31:00,
2013-04-25 01:42:00,55.0,53.0,30.25,NE,36,3.0,12.0,92,0.00,,,1.27,,2013-04-25 06:42:00,
2013-04-25 01:52:00,55.0,53.0,30.25,NE,36,3.0,12.0,92,0.00,,,1.27,,2013-04-25 06:52:00,
2013-04-25 02:02:00,55.0,53.0,30.24,NE,41,3.0,10.0,93,0.00,,,1.27,,2013-04-25 07:02:00,
2013-04-25 02:11:00,55.0,53.0,30.24,NE,41,3.0,10.0,93,0.00,,,1.27,,2013-04-25 07:11:00,
2013-04-25 02:21:00,55.0,53.0,30.24,NE,41,3.0,10.0,93,0.00,,,1.27,,2013-04-25 07:21:00,
2013-04-25 02:32:00,55.0,53.0,30.24,NE,41,2.0,8.0,94,0.00,,,1.27,,2013-04-25 07:32:00,
2013-04-25 02:42:00,55.0,53.0,30.24,NE,41,2.0,8.0,94,0.00,,,1.27,,2013-04-25 07:42:00,
2013-04-25 02:52:00,55.0,53.0,30.24,NNE,17,1.0,9.0,94,0.00,,,1.27,,2013-04-25 07:52:00,
2013-04-25 03:01:00,55.0,53.0,30.24,NNE,25,2.0,5.0,94,0.00,,,1.27,,2013-04-25 08:01:00,
2013-04-25 03:11:00,55.0,53.0,30.24,NNE,25,2.0,5.0,94,0.00,,,1.27,,2013-04-25 08:11:00,
2013-04-25 03:21:00,55.0,53.0,30.24,NNE,25,2.0,5.0,94,0.00,,,1.27,,2013-04-25 08:21:00,
2013-04-25 03:31:00,55.0,53.0,30.25,NE,44,2.0,7.0,94,0.00,,,1.27,,2013-04-25 08:31:00,
2013-04-25 03:41:00,55.0,53.0,30.25,NE,44,2.0,7.0,94,0.00,,,1.27,,2013-04-25 08:41:00,
2013-04-25 03:51:00,55.0,54.0,30.25,NNE,13,2.0,7.0,95,0.00,,,1.27,,2013-04-25 08:51:00,
2013-04-25 04:01:00,55.0,54.0,30.25,NNE,33,5.0,10.0,95,0.00,,,1.27,,2013-04-25 09:01:00,
2013-04-25 04:11:00,55.0,54.0,30.25,NNE,33,5.0,10.0,95,0.00,,,1.27,,2013-04-25 09:11:00,
2013-04-25 04:21:00,55.0,54.0,30.25,NNE,28,2.0,8.0,95,0.00,,,1.27,,2013-04-25 09:21:00,
2013-04-25 04:33:00,55.0,54.0,30.25,NNE,28,2.0,8.0,95,0.00,,,1.27,,2013-04-25 09:33:00,
2013-04-25 04:42:00,55.0,54.0,30.25,NNE,28,2.0,8.0,95,0.00,,,1.27,,2013-04-25 09:42:00,
2013-04-25 04:52:00,54.0,53.0,30.26,NE,53,3.0,12.0,96,0.00,,,1.27,,2013-04-25 09:52:00,
2013-04-25 05:02:00,54.0,53.0,30.26,NE,53,3.0,12.0,96,0.00,,,1.27,,2013-04-25 10:02:00,
2013-04-25 05:12:00,54.0,53.0,30.26,NE,53,3.0,12.0,96,0.00,,,1.27,,2013-04-25 10:12:00,
2013-04-25 05:22:00,54.0,53.0,30.25,NE,38,3.0,10.0,96,0.00,,,1.27,,2013-04-25 10:22:00,
2013-04-25 05:33:00,54.0,53.0,30.25,NE,38,3.0,10.0,96,0.00,,,1.27,,2013-04-25 10:33:00,
2013-04-25 05:42:00,54.0,53.0,30.25,NE,38,3.0,10.0,96,0.00,,,1.27,,2013-04-25 10:42:00,
2013-04-25 05:53:00,54.0,53.0,30.25,South,176,2.0,9.0,95,0.00,,,1.27,,2013-04-25 10:53:00,
2013-04-25 06:02:00,54.0,53.0,30.25,South,176,2.0,9.0,95,0.00,,,1.27,,2013-04-25 11:02:00,
2013-04-25 06:12:00,54.0,53.0,30.25,South,176,2.0,9.0,95,0.00,,,1.27,,2013-04-25 11:12:00,
2013-04-25 06:22:00,54.0,53.0,30.26,NE,35,3.0,9.0,96,0.00,,,1.27,,2013-04-25 11:22:00,
2013-04-25 06:32:00,54.0,53.0,30.26,NE,35,3.0,9.0,96,0.00,,,1.27,,2013-04-25 11:32:00,
2013-04-25 06:42:00,54.0,53.0,30.26,NE,35,3.0,9.0,96,0.00,,,1.27,,2013-04-25 11:42:00,
2013-04-25 06:52:00,54.0,53.0,30.26,NE,35,3.0,9.0,96,0.00,,,1.27,,2013-04-25 11:52:00,
2013-04-25 07:01:00,54.0,53.0,30.28,NNE,21,3.0,8.0,95,0.00,,,1.27,,2013-04-25 12:01:00,
2013-04-25 07:12:00,54.0,53.0,30.28,NNE,21,3.0,8.0,95,0.00,,,1.27,,2013-04-25 12:12:00,
2013-04-25 07:21:00,54.0,53.0,30.28,ENE,69,3.0,9.0,95,0.00,,,0.90,,2013-04-25 12:21:00,
2013-04-25 07:32:00,54.0,53.0,30.31,NE,46,2.0,8.0,95,0.00,,,0.77,,2013-04-25 12:32:00,
2013-04-25 07:41:00,54.0,53.0,30.31,NE,46,2.0,8.0,95,0.00,,,0.77,,2013-04-25 12:41:00,
2013-04-25 07:52:00,54.0,52.0,30.31,ENE,75,3.0,10.0,94,0.00,,,0.68,,2013-04-25 12:52:00,
2013-04-25 08:02:00,54.0,53.0,30.31,NNE,14,4.0,12.0,95,0.00,,,0.35,,2013-04-25 13:02:00,
2013-04-25 08:11:00,54.0,53.0,30.31,NNE,14,4.0,12.0,95,0.00,,,0.35,,2013-04-25 13:11:00,
2013-04-25 08:21:00,54.0,53.0,30.31,NNE,14,4.0,12.0,95,0.00,,,0.35,,2013-04-25 13:21:00,
2013-04-25 08:31:00,54.0,53.0,30.31,NNE,14,4.0,12.0,95,0.00,,,0.35,,2013-04-25 13:31:00,
2013-04-25 08:42:00,54.0,53.0,30.31,NNE,14,4.0,12.0,95,0.00,,,0.35,,2013-04-25 13:42:00,
2013-04-25 08:52:00,55.0,53.0,30.32,ENE,69,5.0,12.0,94,0.00,,,0.21,,2013-04-25 13:52:00,
2013-04-25 09:02:00,55.0,53.0,30.32,ENE,69,5.0,12.0,94,0.00,,,0.21,,2013-04-25 14:02:00,
2013-04-25 09:11:00,55.0,53.0,30.32,ENE,69,5.0,12.0,94,0.00,,,0.21,,2013-04-25 14:11:00,
2013-04-25 09:21:00,56.0,53.0,30.32,East,87,3.0,9.0,91,0.00,,,0.19,,2013-04-25 14:21:00,
2013-04-25 09:32:00,56.0,53.0,30.32,East,87,3.0,9.0,91,0.00,,,0.19,,2013-04-25 14:32:00,
2013-04-25 09:42:00,56.0,53.0,30.32,East,87,3.0,9.0,91,0.00,,,0.19,,2013-04-25 14:42:00,
2013-04-25 09:51:00,57.0,54.0,30.34,East,101,1.0,9.0,89,0.00,,,0.13,,2013-04-25 14:51:00,
2013-04-25 10:02:00,60.0,55.0,30.34,NE,50,4.0,8.0,83,0.00,,,0.05,,2013-04-25 15:02:00,
2013-04-25 10:11:00,60.0,55.0,30.34,NE,50,4.0,8.0,83,0.00,,,0.05,,2013-04-25 15:11:00,
2013-04-25 10:20:00,62.0,56.0,30.32,ENE,77,3.0,9.0,82,0.00,,,0.02,,2013-04-25 15:20:00,
2013-04-25 10:21:00,60.0,55.0,30.34,NE,50,4.0,8.0,83,0.00,,,0.05,,2013-04-25 15:21:00,
2013-04-25 10:33:00,61.0,55.0,30.33,NE,40,3.0,10.0,82,0.00,,,0.04,,2013-04-25 15:33:00,
2013-04-25 10:42:00,61.0,55.0,30.33,NE,40,3.0,10.0,82,0.00,,,0.04,,2013-04-25 15:42:00,
2013-04-25 10:52:00,62.0,56.0,30.32,ENE,77,3.0,9.0,82,0.00,,,0.02,,2013-04-25 15:52:00,
2013-04-25 11:02:00,62.0,56.0,30.32,ENE,77,3.0,9.0,82,0.00,,,0.02,,2013-04-25 16:02:00,
2013-04-25 11:13:00,62.0,56.0,30.32,ENE,77,3.0,9.0,82,0.00,,,0.02,,2013-04-25 16:13:00,
2013-04-25 12:22:00,67.0,59.0,30.31,NNE,25,5.0,9.0,76,0.00,,,0.00,,2013-04-25 17:22:00,
2013-04-25 12:32:00,68.0,58.0,30.30,NNE,27,1.0,8.0,71,0.00,,,0.00,,2013-04-25 17:32:00,
2013-04-25 12:42:00,68.0,58.0,30.30,NNE,27,1.0,8.0,71,0.00,,,0.00,,2013-04-25 17:42:00,
2013-04-25 12:53:00,68.0,58.0,30.30,NNE,27,1.0,8.0,71,0.00,,,0.00,,2013-04-25 17:53:00,
2013-04-25 13:01:00,68.0,58.0,30.30,NNE,27,1.0,8.0,71,0.00,,,0.00,,2013-04-25 18:01:00,
2013-04-25 13:11:00,68.0,58.0,30.30,NNE,27,1.0,8.0,71,0.00,,,0.00,,2013-04-25 18:11:00,
2013-04-25 13:21:00,71.0,60.0,30.28,NNE,21,1.0,9.0,69,0.00,,,0.00,,2013-04-25 18:21:00,
2013-04-25 13:32:00,71.0,60.0,30.28,NNE,21,1.0,9.0,69,0.00,,,0.00,,2013-04-25 18:32:00,
2013-04-25 13:43:00,71.0,60.0,30.28,NNE,21,1.0,9.0,69,0.00,,,0.00,,2013-04-25 18:43:00,
2013-04-25 13:53:00,71.0,59.0,30.27,NNE,23,5.0,8.0,66,0.00,,,0.00,,2013-04-25 18:53:00,
2013-04-25 14:01:00,71.0,59.0,30.27,NNE,23,5.0,8.0,66,0.00,,,0.00,,2013-04-25 19:01:00,
2013-04-25 14:12:00,71.0,59.0,30.27,NNE,23,5.0,8.0,66,0.00,,,0.00,,2013-04-25 19:12:00,
2013-04-25 14:21:00,71.0,60.0,30.27,NNE,23,4.0,7.0,69,0.00,,,0.00,,2013-04-25 19:21:00,
2013-04-25 14:31:00,72.0,59.0,30.27,NNE,23,2.0,6.0,63,0.00,,,0.00,,2013-04-25 19:31:00,
2013-04-25 14:42:00,72.0,59.0,30.27,NNE,23,2.0,6.0,63,0.00,,,0.00,,2013-04-25 19:42:00,
2013-04-25 14:52:00,73.0,60.0,30.26,East,90,5.0,8.0,64,0.00,,,0.00,,2013-04-25 19:52:00,
2013-04-25 15:01:00,73.0,58.0,30.25,East,79,4.0,9.0,60,0.00,,,0.00,,2013-04-25 20:01:00,
2013-04-25 15:11:00,73.0,58.0,30.25,East,79,4.0,9.0,60,0.00,,,0.00,,2013-04-25 20:11:00,
2013-04-25 15:22:00,73.0,58.0,30.24,NE,52,4.0,10.0,59,0.00,,,0.00,,2013-04-25 20:22:00,
2013-04-25 15:32:00,73.0,57.0,30.23,East,80,4.0,12.0,57,0.00,,,0.00,,2013-04-25 20:32:00,
2013-04-25 15:42:00,73.0,57.0,30.23,East,80,4.0,12.0,57,0.00,,,0.00,,2013-04-25 20:42:00,
2013-04-25 15:52:00,73.0,57.0,30.23,East,80,4.0,12.0,57,0.00,,,0.00,,2013-04-25 20:52:00,
2013-04-25 16:01:00,74.0,55.0,30.20,East,92,5.0,10.0,51,0.00,,,0.00,,2013-04-25 21:01:00,
2013-04-25 16:11:00,74.0,55.0,30.20,East,92,5.0,10.0,51,0.00,,,0.00,,2013-04-25 21:11:00,
2013-04-25 16:22:00,75.0,59.0,30.19,NE,44,3.0,9.0,57,0.00,,,0.00,,2013-04-25 21:22:00,
2013-04-25 16:33:00,74.0,56.0,30.19,NE,38,2.0,12.0,54,0.00,,,0.00,,2013-04-25 21:33:00,
2013-04-25 16:42:00,74.0,56.0,30.19,NE,38,2.0,12.0,54,0.00,,,0.00,,2013-04-25 21:42:00,
2013-04-25 16:52:00,74.0,55.0,30.19,NE,52,3.0,8.0,51,0.00,,,0.00,,2013-04-25 21:52:00,
2013-04-25 17:02:00,73.0,54.0,30.19,ESE,116,5.0,12.0,52,0.00,,,0.00,,2013-04-25 22:02:00,
2013-04-25 17:12:00,73.0,54.0,30.19,ESE,116,5.0,12.0,52,0.00,,,0.00,,2013-04-25 22:12:00,
2013-04-25 17:22:00,73.0,54.0,30.19,ESE,116,5.0,12.0,52,0.00,,,0.00,,2013-04-25 22:22:00,
2013-04-25 17:32:00,74.0,54.0,30.19,ENE,71,3.0,12.0,49,0.00,,,0.00,,2013-04-25 22:32:00,
2013-04-25 17:42:00,74.0,54.0,30.19,ENE,71,3.0,12.0,49,0.00,,,0.00,,2013-04-25 22:42:00,
2013-04-25 17:52:00,74.0,53.0,30.19,ESE,117,5.0,10.0,48,0.00,,,0.00,,2013-04-25 22:52:00,
2013-04-25 18:02:00,74.0,57.0,30.19,ENE,71,2.0,8.0,55,0.00,,,0.00,,2013-04-25 23:02:00,
2013-04-25 18:12:00,74.0,57.0,30.19,ENE,71,2.0,8.0,55,0.00,,,0.00,,2013-04-25 23:12:00,
2013-04-25 18:22:00,74.0,56.0,30.19,East,98,2.0,8.0,53,0.00,,,0.00,,2013-04-25 23:22:00,
2013-04-25 18:32:00,74.0,56.0,30.19,East,98,2.0,8.0,53,0.00,,,0.00,,2013-04-25 23:32:00,
2013-04-25 18:41:00,74.0,56.0,30.19,East,98,2.0,8.0,53,0.00,,,0.00,,2013-04-25 23:41:00,
2013-04-25 18:52:00,73.0,53.0,30.19,SE,127,1.0,7.0,50,0.00,,,0.00,,2013-04-25 23:52:00,
2013-04-25 19:01:00,72.0,53.0,30.19,ESE,107,1.0,7.0,52,0.00,,,0.00,,2013-04-26 00:01:00,
2013-04-25 19:11:00,72.0,53.0,30.19,ESE,107,1.0,7.0,52,0.00,,,0.00,,2013-04-26 00:11:00,
2013-04-25 19:21:00,72.0,53.0,30.19,ESE,107,1.0,7.0,52,0.00,,,0.00,,2013-04-26 00:21:00,
2013-04-25 19:31:00,72.0,53.0,30.19,ESE,107,1.0,7.0,52,0.00,,,0.00,,2013-04-26 00:31:00,
2013-04-25 19:41:00,72.0,53.0,30.19,ESE,107,1.0,7.0,52,0.00,,,0.00,,2013-04-26 00:41:00,
2013-04-25 19:51:00,69.0,53.0,30.20,ENE,73,0.0,2.0,56,0.00,,,0.00,,2013-04-26 00:51:00,
2013-04-25 20:01:00,67.0,53.0,30.22,ENE,71,0.0,5.0,60,0.00,,,0.00,,2013-04-26 01:01:00,
2013-04-25 20:11:00,67.0,53.0,30.22,ENE,71,0.0,5.0,60,0.00,,,0.00,,2013-04-26 01:11:00,
2013-04-25 20:21:00,66.0,53.0,30.22,ENE,61,0.0,2.0,62,0.00,,,0.00,,2013-04-26 01:21:00,
2013-04-25 20:31:00,66.0,52.0,30.23,East,95,0.0,8.0,61,0.00,,,0.00,,2013-04-26 01:31:00,
2013-04-25 20:41:00,66.0,52.0,30.23,East,95,0.0,8.0,61,0.00,,,0.00,,2013-04-26 01:41:00,
2013-04-25 20:52:00,66.0,52.0,30.23,East,95,0.0,8.0,61,0.00,,,0.00,,2013-04-26 01:52:00,
2013-04-25 21:01:00,65.0,51.0,30.24,ENE,72,1.0,3.0,61,0.00,,,0.00,,2013-04-26 02:01:00,
2013-04-25 21:11:00,65.0,51.0,30.24,ENE,72,1.0,3.0,61,0.00,,,0.00,,2013-04-26 02:11:00,
2013-04-25 21:21:00,65.0,52.0,30.24,ENE,72,0.0,0.0,63,0.00,,,0.00,,2013-04-26 02:21:00,
2013-04-25 21:32:00,63.0,52.0,30.25,ENE,72,0.0,0.0,67,0.00,,,0.00,,2013-04-26 02:32:00,
2013-04-25 21:42:00,63.0,52.0,30.25,ENE,72,0.0,0.0,67,0.00,,,0.00,,2013-04-26 02:42:00,
2013-04-25 21:51:00,62.0,51.0,30.26,ENE,72,0.0,0.0,68,0.00,,,0.00,,2013-04-26 02:51:00,
2013-04-25 22:01:00,62.0,52.0,30.27,ENE,72,0.0,0.0,69,0.00,,,0.00,,2013-04-26 03:01:00,
2013-04-25 22:11:00,62.0,52.0,30.27,ENE,72,0.0,0.0,69,0.00,,,0.00,,2013-04-26 03:11:00,
2013-04-25 22:21:00,62.0,52.0,30.27,ENE,72,0.0,0.0,69,0.00,,,0.00,,2013-04-26 03:21:00,
2013-04-25 22:33:00,61.0,53.0,30.28,North,11,0.0,1.0,74,0.00,,,0.00,,2013-04-26 03:33:00,
2013-04-25 22:43:00,61.0,53.0,30.28,North,11,0.0,1.0,74,0.00,,,0.00,,2013-04-26 03:43:00,
2013-04-25 22:53:00,61.0,53.0,30.28,North,11,0.0,1.0,74,0.00,,,0.00,,2013-04-26 03:53:00,
2013-04-25 23:02:00,62.0,53.0,30.29,ENE,65,1.0,2.0,72,0.00,,,0.00,,2013-04-26 04:02:00,
2013-04-25 23:12:00,62.0,53.0,30.29,ENE,65,1.0,2.0,72,0.00,,,0.00,,2013-04-26 04:12:00,
2013-04-25 23:22:00,62.0,53.0,30.29,ENE,65,1.0,2.0,72,0.00,,,0.00,,2013-04-26 04:22:00,
2013-04-25 23:32:00,62.0,53.0,30.29,East,90,0.0,1.0,72,0.00,,,0.00,,2013-04-26 04:32:00,
2013-04-25 23:43:00,62.0,53.0,30.29,East,90,0.0,1.0,72,0.00,,,0.00,,2013-04-26 04:43:00,
2013-04-25 23:52:00,61.0,52.0,30.29,East,90,0.0,0.0,73,0.00,,,0.00,,2013-04-26 04:52:00,